| time (UTC) | temp F | wind direction | speed MPH | gust MPH | rain 1hr in | rain 24hr in | rain mn in | humidity % | barometer mb |
| 20260503024535 | 61 | 0 | 0.0 | 1.0 | 0.00 | 0.00 | 0.00 | 38 | 1014.6 |
| 20260503023041 | 62 | 0 | 0.0 | 2.0 | 0.00 | 0.00 | 0.00 | 39 | 1014.6 |
| 20260503021538 | 63 | 350 | 1.0 | 2.0 | 0.00 | 0.00 | 0.00 | 38 | 1014.6 |
| 20260503020040 | 63 | 195 | 0.0 | 2.0 | 0.00 | 0.00 | 0.00 | 38 | 1014.5 |
| 20260503014552 | 63 | 111 | 1.0 | 2.0 | 0.00 | 0.00 | 0.00 | 38 | 1014.5 |
| 20260503013033 | 64 | 163 | 2.0 | 5.0 | 0.00 | 0.00 | 0.00 | 36 | 1014.7 |
| 20260503011538 | 65 | 121 | 1.0 | 3.0 | 0.00 | 0.00 | 0.00 | 35 | 1014.6 |
| 20260503010039 | 65 | 117 | 2.0 | 6.0 | 0.00 | 0.00 | 0.00 | 35 | 1014.8 |
| 20260503004540 | 65 | 179 | 3.0 | 6.0 | 0.00 | 0.00 | 0.00 | 35 | 1014.9 |
| 20260503003045 | 65 | 183 | 4.0 | 7.0 | 0.00 | 0.00 | 0.00 | 35 | 1015.1 |
| 20260503001534 | 65 | 157 | 5.0 | 9.0 | 0.00 | 0.00 | 0.00 | 36 | 1015.3 |
| 20260503000042 | 65 | 154 | 6.0 | 9.0 | 0.00 | 0.00 | 0.00 | 35 | 1015.4 |
| 20260502234539 | 66 | 209 | 2.0 | 7.0 | 0.00 | 0.00 | 0.00 | 34 | 1015.4 |
| 20260502233038 | 66 | 199 | 3.0 | 12.0 | 0.00 | 0.00 | 0.00 | 34 | 1015.5 |
| 20260502231538 | 67 | 240 | 3.0 | 10.0 | 0.00 | 0.00 | 0.00 | 32 | 1015.9 |
| 20260502230038 | 67 | 53 | 3.0 | 9.0 | 0.00 | 0.00 | 0.00 | 34 | 1016.2 |
| 20260502224534 | 66 | 306 | 4.0 | 10.0 | 0.00 | 0.00 | 0.00 | 35 | 1016.3 |
| 20260502223041 | 66 | 57 | 3.0 | 8.0 | 0.00 | 0.00 | 0.00 | 35 | 1016.4 |
| 20260502221532 | 67 | 311 | 3.0 | 8.0 | 0.00 | 0.00 | 0.00 | 36 | 1016.7 |
| 20260502220041 | 67 | 204 | 2.0 | 7.0 | 0.00 | 0.00 | 0.00 | 36 | 1016.8 |
| 20260502214536 | 66 | 277 | 4.0 | 9.0 | 0.00 | 0.00 | 0.00 | 37 | 1017.1 |
| 20260502213045 | 65 | 255 | 3.0 | 9.0 | 0.00 | 0.00 | 0.00 | 39 | 1017.3 |
| 20260502211537 | 64 | 337 | 3.0 | 7.0 | 0.00 | 0.00 | 0.00 | 38 | 1017.5 |
| 20260502210035 | 65 | 205 | 3.0 | 6.0 | 0.00 | 0.00 | 0.00 | 37 | 1017.6 |
| 20260502204533 | 65 | 0 | 2.0 | 9.0 | 0.00 | 0.00 | 0.00 | 38 | 1017.7 |
| 20260502203032 | 64 | 43 | 5.0 | 12.0 | 0.00 | 0.00 | 0.00 | 39 | 1017.8 |
| 20260502201534 | 63 | 32 | 8.0 | 13.0 | 0.00 | 0.00 | 0.00 | 41 | 1018.0 |
| 20260502200038 | 63 | 15 | 9.0 | 13.0 | 0.00 | 0.00 | 0.00 | 41 | 1018.2 |
| 20260502194538 | 63 | 198 | 1.0 | 4.0 | 0.00 | 0.00 | 0.00 | 39 | 1018.4 |
| 20260502193039 | 63 | 0 | 1.0 | 9.0 | 0.00 | 0.00 | 0.00 | 39 | 1018.5 |
| 20260502191540 | 63 | 22 | 4.0 | 9.0 | 0.00 | 0.00 | 0.00 | 40 | 1018.6 |
| 20260502190039 | 63 | 96 | 4.0 | 7.0 | 0.00 | 0.00 | 0.00 | 40 | 1018.7 |
| 20260502184538 | 64 | 274 | 3.0 | 9.0 | 0.00 | 0.00 | 0.00 | 39 | 1018.7 |
| 20260502183034 | 63 | 26 | 0.0 | 8.0 | 0.00 | 0.00 | 0.00 | 40 | 1018.9 |
| 20260502181543 | 63 | 40 | 2.0 | 5.0 | 0.00 | 0.00 | 0.00 | 41 | 1019.1 |
| 20260502163039 | 61 | 313 | 4.0 | 12.0 | 0.00 | 0.00 | 0.00 | 42 | 1019.4 |
| 20260502161541 | 61 | 333 | 3.0 | 10.0 | 0.00 | 0.00 | 0.00 | 42 | 1019.4 |
| 20260502151542 | 57 | 261 | 6.0 | 9.0 | 0.00 | 0.00 | 0.00 | 46 | 1019.5 |
| 20260502123032 | 49 | 25 | 14.0 | 17.0 | 0.00 | 0.00 | 0.00 | 55 | 1017.9 |
| 20260502121540 | 49 | 21 | 12.0 | 15.0 | 0.00 | 0.00 | 0.00 | 54 | 1017.7 |
| 20260502114533 | 49 | 5 | 10.0 | 15.0 | 0.00 | 0.00 | 0.00 | 53 | 1017.5 |
| 20260502113032 | 50 | 26 | 9.0 | 15.0 | 0.00 | 0.00 | 0.00 | 52 | 1017.2 |
| 20260502111539 | 46 | 19 | 5.0 | 8.0 | 0.00 | 0.00 | 0.00 | 53 | 1017.2 |
| 20260502110042 | 46 | 331 | 2.0 | 4.0 | 0.00 | 0.00 | 0.00 | 52 | 1016.9 |
| 20260502104540 | 47 | 331 | 3.0 | 6.0 | 0.00 | 0.00 | 0.00 | 51 | 1016.7 |
| 20260502103041 | 47 | 304 | 4.0 | 8.0 | 0.00 | 0.00 | 0.00 | 50 | 1016.6 |
| 20260502101537 | 46 | 312 | 4.0 | 8.0 | 0.00 | 0.00 | 0.00 | 49 | 1016.6 |
| 20260502091534 | 47 | 297 | 3.0 | 8.0 | 0.00 | 0.00 | 0.00 | 45 | 1015.4 |
| 20260502070039 | 51 | 311 | 5.0 | 9.0 | 0.00 | 0.00 | 0.00 | 39 | 1014.8 |
| 20260502064550 | 50 | 329 | 5.0 | 10.0 | 0.00 | 0.00 | 0.00 | 39 | 1014.6 |
| 20260502063037 | 49 | 313 | 6.0 | 12.0 | 0.00 | 0.00 | 0.00 | 39 | 1014.6 |
| 20260502061533 | 53 | 327 | 5.0 | 11.0 | 0.00 | 0.00 | 0.00 | 35 | 1014.6 |
| 20260502060040 | 54 | 308 | 7.0 | 12.0 | 0.00 | 0.00 | 0.00 | 34 | 1014.4 |
| 20260502054543 | 56 | 328 | 10.0 | 17.0 | 0.00 | 0.00 | 0.00 | 33 | 1014.2 |
| 20260502053039 | 55 | 312 | 9.0 | 13.0 | 0.00 | 0.00 | 0.00 | 35 | 1014.1 |
| 20260502051538 | 55 | 307 | 7.0 | 12.0 | 0.00 | 0.00 | 0.00 | 33 | 1014.2 |
| 20260502050033 | 55 | 331 | 7.0 | 11.0 | 0.00 | 0.00 | 0.00 | 33 | 1014.2 |
| 20260502044541 | 55 | 347 | 6.0 | 11.0 | 0.00 | 0.00 | 0.00 | 31 | 1014.2 |
| 20260502043038 | 54 | 321 | 4.0 | 8.0 | 0.00 | 0.00 | 0.00 | 32 | 1014.1 |
| 20260502041539 | 55 | 313 | 3.0 | 9.0 | 0.00 | 0.00 | 0.00 | 29 | 1014.2 |
| 20260502040048 | 56 | 338 | 4.0 | 8.0 | 0.00 | 0.00 | 0.00 | 28 | 1014.1 |
| 20260502034533 | 58 | 317 | 4.0 | 9.0 | 0.00 | 0.00 | 0.00 | 25 | 1014.0 |
| 20260502033033 | 58 | 311 | 4.0 | 7.0 | 0.00 | 0.00 | 0.00 | 25 | 1013.9 |
| 20260502031534 | 59 | 327 | 3.0 | 4.0 | 0.00 | 0.00 | 0.00 | 24 | 1013.8 |
| 20260502030038 | 62 | 315 | 1.0 | 3.0 | 0.00 | 0.00 | 0.00 | 21 | 1013.7 |